[[{"header":{"parameterUnit":"m.s-1","parameterCategory":1,"la1":30.2991,"la2":30.254,"lo1":-89.0895,"lo2":-89.0444,"dy":0.0017,"dx":0.0017,"nx":28,"ny":28,"refTime":"2023-07-30T03:00:00:Z","depth":0,"parameterNumber":2,"parameterNumberName":"U-component_of_WINDS"},"data":[0,0,0,0,0,0,0,0,0,0,0,0,0,0,0,0,0,0,0,0,0,0,0,0,0,0,0,0,0,0,0,0,0,0,0,0,0,0,0,0,0,0,0,0,0,0,0,0,0,0,0,0,0,0,0,0,0,0,4.7248,4.725,0,4.7384,4.7385,4.7387,4.7318,4.7315,4.7311,4.7308,4.7447,4.7453,4.746,0,0,0,0,0,0,0,0,0,0,0,0,0,4.693,4.6936,4.7248,4.725,4.7252,4.7383,4.7385,4.7387,4.7319,4.7315,4.731,4.7306,4.7444,4.7453,4.7461,0,0,0,0,0,0,0,0,0,0,0,0,0,4.7067,4.6938,4.7248,4.7234,4.7234,4.7383,4.7385,4.7387,4.732,4.7314,4.7309,4.7304,4.7442,4.7452,4.7462,4.7634,0,0,4.7494,4.7499,0,0,0,0,0,0,0,0,4.7059,4.7079,4.7234,4.7235,4.7235,4.7329,4.7324,4.747,4.7321,4.7287,4.7308,4.7302,4.7412,4.7424,4.7461,4.764,4.7646,4.7495,4.7502,4.7506,4.7509,0,0,0,0,0,0,0,4.705,4.7073,4.7302,4.7236,4.7237,4.722,4.7233,4.7351,4.7378,4.729,4.7285,4.7302,4.7411,4.7451,4.7464,4.7648,4.7495,4.7504,4.7511,4.7515,4.7972,4.7977,0,0,0,0,0,0,4.7041,4.7065,4.7297,4.7306,4.7132,4.723,4.7245,4.7304,4.7376,4.7382,4.7306,4.7298,4.7436,4.7452,4.7469,4.7672,4.7506,4.7516,4.7522,4.7966,4.7973,4.7979,0,0,0,0,0,0,4.7035,4.7063,4.7292,4.7184,4.7212,4.7241,4.7308,4.7309,4.735,4.7389,4.7393,4.7343,4.7433,4.7454,4.7592,4.7676,4.7521,4.753,4.7959,4.7968,4.7976,4.8081,0,0,0,0,0,0,4.7026,4.7061,4.7126,4.7186,4.7218,4.7414,4.7313,4.7316,4.7368,4.7359,4.7424,4.743,4.743,4.7577,4.7603,4.7687,4.7538,4.7952,4.7963,4.7973,4.807,4.8092,4.8111,0,0,0,0,0,4.7015,4.7151,4.713,4.7158,4.7301,4.7419,4.7437,4.7434,4.7375,4.7441,4.7466,4.7428,4.7663,4.7592,4.762,4.7709,4.7946,4.796,4.7972,4.8061,4.8088,4.8111,0,0,0,0,0,0,4.7101,4.7159,4.7136,4.7296,4.7353,4.7407,4.749,4.7464,4.7539,4.7527,4.752,4.7536,4.7679,4.7708,4.7628,4.7878,4.7795,4.7815,4.7853,4.7879,4.7899,4.7888,4.7547,0,0,0,0,0,4.7139,4.723,4.7275,4.7412,4.7442,4.7462,4.7513,4.7506,4.7564,4.7588,4.7623,4.7682,4.7768,4.7826,4.7908,4.8075,4.8087,4.815,4.817,4.8187,4.8203,4.8291,4.8319,4.8022,4.8022,4.8022,0,0,4.7217,4.726,4.7318,4.7431,4.7474,4.7567,4.7482,4.7586,4.7655,4.7604,4.7736,4.7764,4.7829,4.7981,4.8051,4.801,4.8288,4.8204,4.8217,4.8224,4.8308,4.8336,4.836,4.8031,4.803,4.8028,0,0,4.7408,4.7451,4.7568,4.7613,4.7679,4.7691,4.7719,4.7778,4.7794,4.7926,4.7889,4.7972,4.8122,4.8169,4.8212,4.8419,4.8386,4.8447,4.8553,4.8639,4.8662,4.8683,4.8754,4.878,4.8463,4.8463,4.8464,0,4.7497,4.7637,4.7632,4.7737,4.7787,4.7745,4.7863,4.7907,4.7997,4.8032,4.7986,4.8172,4.8213,4.8375,4.8425,4.8463,4.8493,4.8438,4.8659,4.868,4.8699,4.8767,4.8794,4.847,4.8469,4.8469,4.8468,0,4.7742,4.784,4.7927,4.8013,4.8073,4.8185,4.8196,4.8257,4.8245,4.8261,4.8395,4.8443,4.8533,4.8571,4.8561,4.8731,4.8704,4.8659,4.8576,4.8734,4.8797,4.8824,4.848,4.8477,4.8475,4.8474,0,0,4.799,4.8072,4.8104,4.8142,4.8212,4.8287,4.8396,4.8483,4.8534,4.8598,4.8688,4.8816,4.8774,4.8823,4.8818,4.8893,4.9051,4.8839,4.884,4.8874,4.9239,4.9271,4.9301,4.9031,4.9036,4.904,4.9233,0,4.8184,4.8374,4.8372,4.8548,4.8637,4.8598,4.8692,4.8745,4.8763,4.8841,4.8861,4.8951,4.889,4.8919,4.8992,4.9016,4.9124,4.9003,4.9113,4.9117,4.9095,4.9335,4.9369,4.9549,4.9258,4.9262,4.9265,0,4.8435,4.8505,4.869,4.8744,4.8782,4.8867,4.8945,4.9021,4.9079,4.9087,4.9142,4.9124,4.9234,4.9149,4.9299,4.9216,4.9261,4.928,4.9287,4.9295,4.9199,4.9347,4.9606,4.9632,4.9305,4.9302,4.9299,0,4.8594,4.8735,4.8863,4.8897,4.8965,4.9025,4.9056,4.911,4.9162,4.9231,4.9264,4.9346,4.939,4.9453,4.9457,4.9395,4.9608,4.9523,4.9616,4.9615,4.966,4.9657,4.9928,4.9694,4.9694,4.9693,4.9692,0,4.8809,4.8923,4.8935,4.9014,4.914,4.9136,4.9261,4.9286,4.9333,4.9415,4.9388,4.9465,4.9467,4.9546,4.9551,4.9673,4.9694,4.9702,4.9701,4.9703,4.9702,4.9731,4.9717,4.97,4.9699,4.9697,4.9696,0,4.9007,4.9021,4.9157,4.921,4.9225,4.9315,4.936,4.9434,4.945,4.9554,4.9578,4.9602,4.9694,4.9705,4.9812,4.9814,4.9961,4.9948,4.9941,4.9938,5.0028,5.0018,5.0325,5.0364,5.0107,5.011,5.0112,0,4.9142,4.9228,4.929,4.9342,4.9376,4.9462,4.9514,4.9514,4.957,4.9642,4.9707,4.9796,4.9866,5.0014,5.0041,5.0122,5.011,5.0212,5.0122,5.012,5.0108,5.0102,5.0109,5.0229,5.0231,5.0234,5.0236,0,4.9379,4.9381,4.9458,4.9537,4.96,4.9663,4.9721,4.9766,4.9773,4.9837,4.9929,4.9984,5.0092,5.018,5.026,5.0291,5.0264,5.0264,5.0289,5.029,5.0281,5.0285,4.9985,5.0256,5.0254,5.0253,5.0252,5.0251,4.9548,4.9622,4.9676,4.9762,4.9806,4.9861,4.9932,4.9956,5.0033,5.0121,5.0116,5.0218,5.0272,5.0377,5.0414,5.0493,5.0459,5.0496,5.0505,5.0513,5.0521,5.0271,5.0508,5.0507,5.0507,5.0506,5.0506,0,4.9781,4.9814,4.9893,4.9975,5.0042,5.0012,5.0074,5.0132,5.0222,5.0275,5.0344,5.045,5.0534,5.0568,5.065,5.0707,5.0696,5.0728,5.0722,5.0729,5.0548,5.0517,5.0735,5.0735,5.0735,5.0735,5.0735,5.0735,4.9911,5.0033,5.0041,5.0185,5.0216,5.0315,5.0353,5.0403,5.0445,5.0564,5.0633,5.0655,5.0699,5.0784,5.086,5.0868,5.0898,5.0935,5.0937,5.0766,5.0743,5.0721,5.0691,5.0942,5.0942,5.1111,5.1113,5.1114]},{"header":{"parameterUnit":"m.s-1","parameterCategory":1,"la1":30.2991,"la2":30.254,"lo1":-89.0895,"lo2":-89.0444,"dy":0.0017,"dx":0.0017,"nx":28,"ny":28,"refTime":"2023-07-30T03:00:00:Z","depth":0,"parameterNumber":3,"parameterNumberName":"V-component_of_WINDS"},"data":[0,0,0,0,0,0,0,0,0,0,0,0,0,0,0,0,0,0,0,0,0,0,0,0,0,0,0,0,0,0,0,0,0,0,0,0,0,0,0,0,0,0,0,0,0,0,0,0,0,0,0,0,0,0,0,0,0,0,1.7224,1.7224,0,1.7296,1.7297,1.7298,1.7293,1.7292,1.7291,1.729,1.7362,1.7365,1.7368,0,0,0,0,0,0,0,0,0,0,0,0,0,1.7077,1.708,1.7224,1.7225,1.7225,1.7296,1.7297,1.7298,1.7293,1.7292,1.729,1.7289,1.7361,1.7364,1.7368,0,0,0,0,0,0,0,0,0,0,0,0,0,1.7144,1.708,1.7223,1.7231,1.7233,1.7296,1.7297,1.7299,1.7293,1.7292,1.729,1.7289,1.736,1.7364,1.7368,1.7428,0,0,1.7382,1.7384,0,0,0,0,0,0,0,0,1.714,1.7149,1.7229,1.7231,1.7233,1.7284,1.7272,1.7342,1.7294,1.727,1.729,1.7288,1.7337,1.7343,1.736,1.7431,1.7434,1.7382,1.7385,1.7387,1.7388,0,0,0,0,0,0,0,1.7136,1.7146,1.7252,1.723,1.7233,1.723,1.7238,1.7285,1.7312,1.7272,1.7272,1.7281,1.7338,1.7356,1.7362,1.7435,1.7382,1.7386,1.7389,1.7391,1.7556,1.7558,0,0,0,0,0,0,1.713,1.7142,1.725,1.7255,1.7182,1.7234,1.7243,1.7269,1.7311,1.7316,1.7282,1.728,1.735,1.7357,1.7365,1.7436,1.7387,1.7391,1.7393,1.7555,1.7557,1.7559,0,0,0,0,0,0,1.7126,1.7139,1.7247,1.7198,1.7212,1.7238,1.7268,1.7271,1.729,1.7319,1.7323,1.7296,1.7349,1.7358,1.7412,1.7438,1.7393,1.7397,1.7553,1.7555,1.7558,1.758,0,0,0,0,0,0,1.7122,1.7138,1.7162,1.7199,1.7215,1.7294,1.727,1.7274,1.7298,1.7296,1.7333,1.7338,1.7348,1.7405,1.7416,1.7444,1.74,1.755,1.7554,1.7557,1.7577,1.7583,1.7588,0,0,0,0,0,1.7117,1.7165,1.7163,1.7176,1.7245,1.7296,1.7305,1.7316,1.73,1.7323,1.7342,1.7337,1.7434,1.7411,1.7423,1.7452,1.7549,1.7553,1.7557,1.7574,1.7582,1.7588,0,0,0,0,0,0,1.713,1.717,1.7169,1.723,1.726,1.7295,1.7325,1.7324,1.7358,1.7355,1.7367,1.7375,1.7428,1.7446,1.742,1.7511,1.7489,1.7495,1.7498,1.7505,1.7511,1.7505,1.7404,0,0,0,0,0,1.714,1.7179,1.7212,1.7263,1.7278,1.7299,1.7321,1.7327,1.7358,1.737,1.7393,1.7422,1.7459,1.7483,1.7518,1.7579,1.7586,1.7605,1.761,1.7615,1.762,1.7652,1.766,1.7572,1.7572,1.7572,0,0,1.7162,1.7188,1.7212,1.7266,1.729,1.7328,1.7309,1.7352,1.738,1.7377,1.7429,1.7446,1.7479,1.7535,1.7562,1.7551,1.7646,1.762,1.7623,1.7626,1.7657,1.7665,1.7672,1.7575,1.7574,1.7574,0,0,1.722,1.7245,1.729,1.7313,1.7349,1.7363,1.7373,1.7408,1.742,1.7472,1.747,1.7503,1.7567,1.759,1.761,1.7675,1.7672,1.7686,1.7716,1.7746,1.7753,1.776,1.7782,1.779,1.7692,1.7692,1.7692,0,1.7242,1.7302,1.7313,1.7355,1.7378,1.7377,1.7421,1.7443,1.7489,1.7504,1.7492,1.7571,1.7593,1.7655,1.7671,1.7687,1.7699,1.7683,1.7752,1.7758,1.7764,1.7785,1.7794,1.7693,1.7693,1.7693,1.7693,0,1.7326,1.7367,1.7399,1.7443,1.7469,1.7513,1.7529,1.7554,1.7557,1.7571,1.7623,1.765,1.769,1.7705,1.7709,1.7767,1.7759,1.7749,1.7727,1.7774,1.7794,1.7802,1.7696,1.7695,1.7695,1.7694,0,0,1.7396,1.7445,1.7456,1.7476,1.7514,1.7545,1.7587,1.7627,1.7648,1.7679,1.7714,1.7767,1.7757,1.778,1.7786,1.7813,1.7861,1.7799,1.78,1.7809,1.7925,1.7932,1.7942,1.7859,1.786,1.7862,1.7922,0,1.7458,1.7534,1.7545,1.7611,1.7648,1.7647,1.7683,1.771,1.7724,1.7756,1.7771,1.7808,1.7793,1.7807,1.7833,1.785,1.7885,1.7846,1.789,1.7892,1.7882,1.7952,1.7961,1.8016,1.793,1.7932,1.7933,0,1.7542,1.7575,1.7645,1.7677,1.7693,1.7726,1.7762,1.7793,1.7823,1.7831,1.7856,1.7857,1.7899,1.7875,1.7933,1.7906,1.7924,1.7935,1.7937,1.7942,1.7915,1.7958,1.8035,1.8043,1.7945,1.7944,1.7943,0,1.7585,1.7647,1.7697,1.7713,1.7752,1.7775,1.7792,1.782,1.7842,1.7874,1.7888,1.7924,1.7943,1.797,1.798,1.7962,1.8036,1.8014,1.8043,1.8043,1.8059,1.8058,1.8139,1.8072,1.8072,1.8071,1.8071,0,1.7653,1.7696,1.7716,1.7747,1.7794,1.7805,1.7851,1.7867,1.7892,1.7924,1.7924,1.7955,1.7967,1.7999,1.8007,1.8053,1.8062,1.8068,1.807,1.8068,1.8067,1.8081,1.8077,1.8074,1.8073,1.8073,1.8072,0,1.771,1.7725,1.7779,1.7811,1.782,1.7854,1.788,1.7909,1.7922,1.7963,1.7973,1.7993,1.803,1.8043,1.8089,1.8094,1.8147,1.8145,1.8137,1.8137,1.8166,1.8163,1.8258,1.8271,1.8195,1.8196,1.8196,0,1.7752,1.7785,1.7821,1.7843,1.786,1.7896,1.7919,1.793,1.7953,1.7988,1.8013,1.805,1.808,1.8139,1.8157,1.8191,1.819,1.8221,1.8196,1.8192,1.819,1.8188,1.8191,1.8226,1.8227,1.8228,1.8228,0,1.7826,1.7832,1.7865,1.7901,1.7928,1.7957,1.7985,1.8002,1.8017,1.8043,1.8082,1.8105,1.8151,1.8187,1.8222,1.8238,1.8235,1.8236,1.8245,1.8243,1.8237,1.824,1.815,1.8234,1.8233,1.8233,1.8233,1.8232,1.7877,1.7905,1.7934,1.7971,1.7993,1.8018,1.8046,1.8062,1.8095,1.8133,1.8137,1.8178,1.8205,1.8251,1.8268,1.8299,1.8291,1.8303,1.8306,1.8309,1.8311,1.8232,1.8306,1.8306,1.8306,1.8305,1.8305,0,1.7949,1.7968,1.8001,1.804,1.8068,1.8064,1.8093,1.8117,1.8153,1.8179,1.8208,1.8251,1.8286,1.8306,1.834,1.8361,1.8361,1.837,1.8368,1.8372,1.8317,1.8306,1.837,1.837,1.837,1.837,1.837,1.837,1.7991,1.8039,1.8047,1.8105,1.8123,1.8163,1.818,1.8203,1.8223,1.8272,1.8301,1.8314,1.8336,1.8372,1.8403,1.8408,1.842,1.843,1.8434,1.8382,1.8376,1.837,1.8359,1.8433,1.8433,1.8486,1.8486,1.8486]}]]